Change the Weather History Date:

Thursday, June 5, 2014

  Actual Average Record
Temperature  
Mean Temperature 67 °F 69 °F  
Max Temperature 78 °F 79 °F 98 °F (1977)
Min Temperature 56 °F 58 °F 41 °F (1993)
Degree Days  
Heating Degree Days 0 1  
Month to date heating degree days 0 8  
Since 1 June heating degree days 0 8  
Since 1 July heating degree days 6586 5821  
Cooling Degree Days 2 5  
Month to date cooling degree days 50 23  
Year to date cooling degree days 208 104  
Since 1 June cooling degree days 50 23  
Growing Degree Days 16 (Base 50)    
Moisture  
Dew Point 53 °F    
Average Humidity 66    
Maximum Humidity 93    
Minimum Humidity 39    
Precipitation  
Precipitation 0.00 in 0.12 in 2.47 in (1932)
Month to date precipitation 1.50 0.60  
Year to date precipitation 13.48 14.93  
Snow  
Snow 0.00 in 0.00 in 0.00 in ()
Month to date snowfall 0.0 0.0  
Since 1 June snowfall 0.0 0.0  
Since 1 July snowfall 57.6 24.6  
Snow Depth 0.00 in    
Sea Level Pressure  
Sea Level Pressure 29.93 in    
Wind  
Wind Speed 6 mph (East)    
Max Wind Speed 14 mph    
Max Gust Speed 18 mph    
Visibility 9 miles    
Events      
T = Trace of Precipitation, MM = Missing Value Source: NWS Daily Summary

Daily Weather History Graph

Daily Weather History Graph

Search for Another Location

Airport or City:

Trip Planner

Search our weather history database for the weather conditions in past years. The results will help you decide how hot, cold, wet, or windy it might be!

Date:

Astronomy

Jun. 05, 2014 Rise Set
Actual Time 5:28 AM CDT 8:26 PM CDT
Civil Twilight 4:55 AM CDT 8:59 PM CDT
Nautical Twilight 4:13 AM CDT 9:41 PM CDT
Astronomical Twilight 3:25 AM CDT 10:29 PM CDT
Moon 12:46 PM CDT (6/5) 12:52 AM CDT (6/5)
Length of Visible Light 16h 03m
Length of Day
14h 57m
Waxing Crescent, 49% of the Moon is Illuminated
Jun 5
Waxing Crescent
Jun 5
First Quarter
Jun 12
Full
Jun 19
Last Quarter
Jun 27
New

Hourly Weather History & Observations

Time (CDT) Temp. Dew Point Humidity Pressure Visibility Wind Dir Wind Speed Gust Speed Precip Events Conditions
12:54 AM 61.0 °F 55.9 °F 83% 29.92 in 10.0 mi ENE 8.1 mph - N/A   Clear
1:54 AM 60.1 °F 55.9 °F 86% 29.92 in 10.0 mi ENE 8.1 mph - N/A   Clear
2:54 AM 60.1 °F 55.0 °F 83% 29.93 in 9.0 mi East 5.8 mph - N/A   Clear
3:54 AM 59.0 °F 55.0 °F 87% 29.93 in 8.0 mi ENE 5.8 mph - N/A   Clear
4:54 AM 57.0 °F 53.1 °F 87% 29.94 in 8.0 mi ENE 5.8 mph - N/A   Clear
5:54 AM 55.9 °F 53.1 °F 90% 29.95 in 5.0 mi East 5.8 mph - N/A   Clear
6:54 AM 60.1 °F 55.0 °F 83% 29.91 in 7.0 mi East 8.1 mph - N/A   Clear
7:54 AM 63.0 °F 55.0 °F 75% 29.95 in 9.0 mi ENE 9.2 mph - N/A   Clear
8:54 AM 66.0 °F 55.0 °F 68% 29.96 in 10.0 mi ENE 10.4 mph - N/A   Clear
9:54 AM 69.1 °F 54.0 °F 58% 29.96 in 10.0 mi East 11.5 mph - N/A   Clear
10:54 AM 71.1 °F 51.1 °F 49% 29.99 in 10.0 mi East 5.8 mph - N/A   Clear
11:54 AM 73.0 °F 48.9 °F 42% 29.98 in 10.0 mi East 5.8 mph - N/A   Clear
12:54 PM 75.0 °F 51.1 °F 43% 29.95 in 10.0 mi ESE 4.6 mph - N/A   Clear
1:54 PM 77.0 °F 52.0 °F 42% 29.91 in 10.0 mi ESE 10.4 mph 17.3 mph N/A   Clear
2:54 PM 75.9 °F 51.1 °F 42% 29.89 in 10.0 mi East 10.4 mph - N/A   Clear
3:54 PM 78.1 °F 52.0 °F 40% 29.91 in 10.0 mi East 8.1 mph - N/A   Clear
4:54 PM 77.0 °F 50.0 °F 39% 29.91 in 10.0 mi SE 3.5 mph - N/A   Clear
5:54 PM 75.9 °F 51.1 °F 42% 29.91 in 10.0 mi Variable 5.8 mph - N/A   Clear
6:54 PM 75.0 °F 50.0 °F 41% 29.92 in 10.0 mi SSE 5.8 mph - N/A   Clear
7:54 PM 73.9 °F 52.0 °F 46% 29.93 in 10.0 mi Calm Calm - N/A   Clear
8:54 PM 68.0 °F 55.0 °F 63% 29.92 in 10.0 mi Calm Calm - N/A   Clear
9:54 PM 64.0 °F 55.0 °F 73% 29.94 in 10.0 mi East 3.5 mph - N/A   Clear
10:54 PM 63.0 °F 54.0 °F 72% 29.93 in 10.0 mi Calm Calm - N/A   Clear
11:54 PM 61.0 °F 54.0 °F 78% 29.93 in 10.0 mi Calm Calm - N/A   Clear